Погода в Старосемейкине

Россия / Самарская область     53°24′50″N   50°16′27″E
темп.,
°C
ветер,
м/с
пор.,
м/с
влажн.,
%
обл.,
%
осадки,
мм/ч
давл.,
гПа
погр.,
м
21 апреля, ср
ср2101:00+4юв71547100 0.0 1027656
04:00+3юв71650100 0.0 1026696
07:00+4юв71650100 0.0 1026791
10:00+4юв91750100 0.3 1025731
13:00+5ююв91750100 0.0 1025809
16:00+2ююв81883100 2.4 1025775
19:00+2ююв71793100 2.7 1025831
22:00+3ююв71594100 4.3 1025833
22 апреля, чт
чт2201:00+4ююв61393100 0.9 1024627
04:00+4ю51294100 1.1 1025608
07:00+5ююв71393100 0.1 1026628
10:00+5ю61188100 0.3 1026525
13:00+6ююв588799 0.1 1027532
16:00+7ююв6781100 0.1 1027641
19:00+6ююв5882100 0.0 1027518
22:00+4юв39914 0.0 1027265
23 апреля, пт
пт2301:00+3ююв359553 0.0 1027121
04:00+3ююв259834 0.0 1027118
07:00+4ююв249228 0.0 1027149
10:00+9вюв337468 0.0 1027599
13:00+12в4465100 0.0 1026936
16:00+12в4562100 0.0 10241104
19:00+11св3674100 0.0 1023199
22:00+9в2280100 0.0 102235
24 апреля, сб
сб2401:00+7вюв3691100 0.1 1020230
04:00+7в2692100 0.5 1019435
07:00+7всв3693100 0.6 1017333
10:00+7ссв3492100 1.1 1016280
13:00+7ссв3390100 0.3 1015368
16:00+8ссз1284100 0.4 1014390
19:00+8з118899 0.1 101426
22:00+7ююв229191 0.1 101344
25 апреля, вс
вс2501:00+5ююв389596 0.0 1012186
04:00+7ююв51192100 0.2 1010396
07:00+5зюз6118254 0.1 1012744
10:00+9зюз711555 0.1 10141460
13:00+12зюз7104080 0.0 10152488
16:00+13юз6103798 0.0 10142504
19:00+8з5985100 1.6 10161007
22:00+7ююз398494 2.5 1016435